EW1297 Weather Reports


Display with metric or nautical units.
time (UTC)temp
F
wind
direction
speed
MPH
gust
MPH
rain 1hr
in
rain 24hr
in
rain mn
in
humidity
%
barometer
mb
20260505124615 63 0.0 2.0 0.00 0.01 0.01 76 1011.1
20260505123615 62 0.0 0.0 0.00 0.01 0.01 84 1011.1
20260505122615 61 0.0 1.0 0.00 0.01 0.01 88 1011.1
20260505121615 60 0.0 0.0 0.00 0.01 0.01 91 1011.1
20260505120615 59 0.0 0.0 0.01 0.01 0.01 91 1011.2
20260505115615 57 0.0 0.0 0.01 0.01 0.01 91 1011.2
20260505114615 56 0.0 0.0 0.01 0.01 0.01 90 1011.2
20260505113615 56 0.0 0.0 0.01 0.01 0.01 89 1011.3
20260505112615 56 0.0 0.0 0.01 0.01 0.01 89 1011.3
20260505111615 56 248 1.0 3.0 0.01 0.01 0.01 87 1010.7
20260505110615 56 0.0 0.0 0.00 0.00 0.00 86 1011.3
20260505101617 53 0.0 0.0 0.00 0.00 0.00 85 1011.1
20260505100617 53 0.0 0.0 0.00 0.00 0.00 85 1010.9
20260505095637 53 0.0 0.0 0.00 0.00 0.00 86 1010.8
20260505094617 53 0.0 0.0 0.00 0.00 0.00 86 1010.8
20260505093617 52 0.0 0.0 0.00 0.00 0.00 87 1010.3
20260505092617 52 0.0 0.0 0.00 0.00 0.00 86 1010.4
20260505091617 52 0.0 0.0 0.00 0.00 0.00 85 1010.3
20260505090617 52 0.0 0.0 0.00 0.00 0.00 85 1010.4
20260505085617 52 0.0 0.0 0.00 0.00 0.00 84 1010.4
20260505084617 52 0.0 0.0 0.00 0.00 0.00 84 1010.3
20260505083617 53 0.0 0.0 0.00 0.00 0.00 83 1010.3
20260505082617 53 0.0 0.0 0.00 0.00 0.00 83 1010.4
20260505081617 53 0.0 0.0 0.00 0.00 0.00 82 1010.4
20260505080617 53 0.0 0.0 0.00 0.00 0.00 82 1010.3
20260505075617 53 0.0 0.0 0.00 0.00 0.00 81 1010.3
20260505074637 54 0.0 0.0 0.00 0.00 0.00 80 1010.3
20260505073617 54 0.0 0.0 0.00 0.00 0.00 80 1010.4
20260505072617 54 0.0 0.0 0.00 0.00 0.00 80 1010.4
20260505071637 54 0.0 0.0 0.00 0.00 0.00 80 1010.3
20260505070637 54 0.0 0.0 0.00 0.00 0.00 79 1010.3
20260505070417 54 0.0 0.0 0.00 0.00 0.00 79 1010.3
20260505065417 54 0.0 0.0 0.00 0.00 0.00 78 1010.4
20260505064417 55 0.0 0.0 0.00 0.00 0.00 77 1010.3
20260505063417 55 0.0 0.0 0.00 0.00 0.00 77 1010.4
20260505062417 55 0.0 0.0 0.00 0.00 0.00 76 1010.4
20260505061417 55 0.0 0.0 0.00 0.00 0.00 75 1010.6
20260505060417 56 0.0 0.0 0.00 0.00 0.00 73 1010.7
20260505055417 57 0.0 0.0 0.00 0.00 0.00 72 1010.6
20260505054417 57 0.0 0.0 0.00 0.00 0.00 71 1010.6
20260505053417 57 0.0 0.0 0.00 0.00 0.00 70 1010.7
20260505052416 57 0.0 0.0 0.00 0.00 0.00 69 1010.7
20260505051417 58 0.0 0.0 0.00 0.00 0.00 68 1010.7
20260505050417 58 0.0 0.0 0.00 0.00 0.00 68 1010.8
20260505041417 59 0.0 0.0 0.00 0.00 0.00 65 1010.9
20260505040437 59 0.0 0.0 0.00 0.00 0.00 64 1010.8
20260505035417 59 0.0 0.0 0.00 0.00 0.00 63 1010.8
20260505034416 59 0.0 0.0 0.00 0.00 0.00 63 1010.9
20260505033417 59 0.0 1.0 0.00 0.00 0.00 62 1010.9
20260505032417 60 0.0 0.0 0.00 0.00 0.00 62 1011.1
20260505031417 60 0.0 2.0 0.00 0.00 0.00 61 1011.1
20260505030417 60 0.0 2.0 0.00 0.00 0.00 60 1011.1
20260505025436 60 0.0 0.0 0.00 0.00 0.00 59 1011.2
20260505024437 60 0.0 2.0 0.00 0.00 0.00 59 1011.2
20260505023416 60 0.0 0.0 0.00 0.00 0.00 58 1011.3
20260505022437 60 0.0 0.0 0.00 0.00 0.00 57 1011.3
20260505021417 61 0.0 0.0 0.00 0.00 0.00 56 1011.2
20260505020416 60 0.0 1.0 0.00 0.00 0.00 55 1011.2
20260505015437 59 0.0 0.0 0.00 0.00 0.00 55 1011.1
20260505014457 60 0.0 0.0 0.00 0.00 0.00 55 1011.1
20260505013417 60 0.0 0.0 0.00 0.00 0.00 53 1011.0
20260505012417 61 0.0 0.0 0.00 0.00 0.00 53 1011.0
20260505011417 61 0.0 0.0 0.00 0.00 0.00 52 1010.8
20260505010437 61 0.0 0.0 0.00 0.00 0.00 51 1010.6
20260505005417 62 0.0 0.0 0.00 0.00 0.00 50 1010.5
20260505004416 63 0.0 0.0 0.00 0.00 0.00 49 1010.4
20260505003417 63 0.0 0.0 0.00 0.00 0.00 48 1010.2
20260505002416 64 0.0 0.0 0.00 0.00 0.00 47 1010.2
20260505001416 65 0.0 0.0 0.00 0.00 0.00 45 1010.1
20260505000416 65 0.0 0.0 0.00 0.00 0.00 44 1009.8
20260504235436 66 0.0 0.0 0.00 0.00 0.00 43 1009.7
20260504234417 66 0.0 0.0 0.00 0.00 0.00 43 1009.6
20260504233416 66 0.0 0.0 0.00 0.00 0.00 43 1009.3
20260504232437 67 0.0 0.0 0.00 0.00 0.00 42 1009.3
20260504231416 67 0.0 0.0 0.00 0.00 0.00 43 1009.2
20260504230416 67 0.0 0.0 0.00 0.00 0.00 43 1009.0
20260504225416 68 0.0 0.0 0.00 0.00 0.00 41 1009.0
20260504224416 68 0.0 2.0 0.00 0.00 0.00 40 1009.1
20260504223416 68 0.0 1.0 0.00 0.00 0.00 40 1009.1
20260504222416 69 0.0 0.0 0.00 0.00 0.00 41 1009.1
20260504221416 69 0.0 0.0 0.00 0.00 0.00 40 1009.1
20260504220416 69 0.0 0.0 0.00 0.00 0.00 40 1009.2
20260504215416 70 0.0 0.0 0.00 0.00 0.00 39 1009.4
20260504214416 70 0.0 1.0 0.00 0.00 0.00 39 1009.5
20260504213416 70 113 2.0 6.0 0.00 0.00 0.00 37 1009.6
20260504212416 70 0.0 1.0 0.00 0.00 0.00 37 1009.5
20260504211416 71 0.0 1.0 0.00 0.00 0.00 36 1009.7
20260504210416 71 203 2.0 4.0 0.00 0.00 0.00 35 1009.6
20260504205416 71 0.0 1.0 0.00 0.00 0.00 36 1009.6
20260504204416 72 0.0 1.0 0.00 0.00 0.00 36 1009.5
20260504203416 72 0.0 1.0 0.00 0.00 0.00 35 1009.6
20260504202417 74 90 1.0 2.0 0.00 0.00 0.00 33 1009.6
20260504201416 74 113 2.0 7.0 0.00 0.00 0.00 32 1009.8
20260504200416 75 113 1.0 2.0 0.00 0.00 0.00 32 1009.8
20260504195436 75 0.0 0.0 0.00 0.00 0.00 32 1009.9
20260504194416 74 0.0 1.0 0.00 0.00 0.00 33 1010.0
20260504193416 74 68 1.0 2.0 0.00 0.00 0.00 34 1010.1
20260504192416 74 0.0 1.0 0.00 0.00 0.00 33 1010.1
20260504191416 74 0.0 1.0 0.00 0.00 0.00 34 1010.3
20260504190416 73 68 1.0 3.0 0.00 0.00 0.00 33 1010.4
20260504185416 73 45 1.0 2.0 0.00 0.00 0.00 34 1010.5
20260504184416 74 113 1.0 4.0 0.00 0.00 0.00 34 1010.7
20260504183416 73 135 1.0 4.0 0.00 0.00 0.00 34 1010.8
20260504182436 73 0.0 1.0 0.00 0.00 0.00 34 1010.9
20260504181416 73 90 2.0 4.0 0.00 0.00 0.00 33 1011.0
20260504180416 73 90 1.0 9.0 0.00 0.00 0.00 34 1011.1
20260504175416 73 0.0 2.0 0.00 0.00 0.00 34 1011.2
20260504174416 73 0.0 1.0 0.00 0.00 0.00 38 1011.3
20260504173416 72 68 1.0 3.0 0.00 0.00 0.00 35 1011.4
20260504172416 71 225 1.0 2.0 0.00 0.00 0.00 36 1011.5
20260504171416 71 68 1.0 3.0 0.00 0.00 0.00 36 1011.8
20260504170416 71 203 1.0 3.0 0.00 0.00 0.00 36 1011.7
20260504150435 67 135 1.0 3.0 0.00 0.00 0.00 40 1013.1
20260504140416 62 68 1.0 3.0 0.00 0.00 0.00 46 1013.5